GW4344 Weather Reports


Display with metric or nautical units.
time (UTC)temp
F
wind
direction
speed
MPH
gust
MPH
rain 1hr
in
rain 24hr
in
rain mn
in
humidity
%
barometer
mb
20260508045221 60 94 0.0 200.0 0.00 0.00 0.00 87 118.2
20260508044205 60 90 0.0 200.0 0.00 0.00 0.00 87 118.2
20260508043705 60 83 0.0 200.0 0.00 0.00 0.00 87 118.1
20260508043204 60 78 0.0 200.0 0.00 0.00 0.00 87 118.0
20260508042148 60 68 0.0 200.0 0.00 0.00 0.00 87 117.6
20260508041648 60 64 0.0 200.0 0.00 0.00 0.00 88 117.6
20260508041147 60 60 0.0 200.0 0.00 0.00 0.00 88 117.5
20260508040646 59 55 0.0 200.0 0.00 0.00 0.00 88 117.4
20260508040145 59 53 0.0 200.0 0.00 0.00 0.00 88 117.3
20260508035644 59 52 0.0 200.0 0.00 0.00 0.00 88 117.2
20260508034627 59 51 0.0 200.0 0.00 0.00 0.00 88 117.3
20260508034126 59 51 0.0 200.0 0.00 0.00 0.00 87 117.2
20260508033626 59 49 0.0 200.0 0.00 0.00 0.00 88 117.2
20260508033126 59 45 0.0 200.0 0.00 0.00 0.00 88 117.2
20260508032111 58 36 0.0 200.0 0.00 0.00 0.00 88 117.0
20260508031610 58 34 0.0 200.0 0.00 0.00 0.00 88 116.9
20260508030553 58 36 0.0 200.0 0.00 0.00 0.00 88 116.9
20260508030052 58 39 0.0 200.0 0.00 0.00 0.00 88 117.1
20260508025037 58 39 0.0 200.0 0.00 0.00 0.00 89 117.1
20260508024536 58 40 0.0 200.0 0.00 0.00 0.00 89 117.1
20260508023519 58 44 0.0 200.0 0.00 0.00 0.00 88 117.2
20260508023019 58 48 0.0 200.0 0.00 0.00 0.00 88 117.3
20260508022519 58 53 0.0 200.0 0.00 0.00 0.00 87 117.3
20260508022018 58 56 0.0 200.0 0.00 0.00 0.00 87 117.4
20260508021002 59 64 0.0 200.0 0.00 0.00 0.00 86 117.6
20260508020502 59 66 0.0 200.0 0.00 0.00 0.00 86 117.7
20260508020002 59 66 0.0 200.0 0.00 0.00 0.00 85 117.7
20260508015501 59 66 0.0 200.0 0.00 0.00 0.00 85 117.7
20260508015001 60 65 0.0 200.0 0.00 0.00 0.00 85 117.6
20260508013944 60 61 0.0 200.0 0.00 0.00 0.00 84 117.5
20260508013443 60 59 0.0 200.0 0.00 0.00 0.00 84 117.4
20260508012943 60 57 0.0 200.0 0.00 0.00 0.00 85 117.4
20260508012441 60 57 0.0 200.0 0.00 0.00 0.00 85 117.3
20260508011941 60 58 0.0 200.0 0.00 0.00 0.00 85 117.4
20260508011440 60 59 0.0 200.0 0.00 0.00 0.00 84 117.4
20260508010422 60 62 0.0 200.0 0.00 0.00 0.00 85 117.5
20260508005921 60 64 0.0 200.0 0.00 0.00 0.00 85 117.5
20260508005421 60 65 0.0 200.0 0.00 0.00 0.00 84 117.6
20260508004405 59 69 0.0 200.0 0.00 0.00 0.00 83 117.7
20260508003904 59 69 0.0 200.0 0.00 0.00 0.00 84 117.7
20260508003404 59 71 0.0 200.0 0.00 0.00 0.00 83 117.7
20260508002902 60 72 0.0 200.0 0.00 0.00 0.00 84 117.8
20260508002402 60 74 0.0 200.0 0.00 0.00 0.00 84 117.8
20260508001901 60 78 0.0 200.0 0.00 0.00 0.00 84 117.9
20260508001400 60 80 0.0 200.0 0.00 0.00 0.00 83 118.0
20260508000859 60 77 0.0 200.0 0.00 0.00 0.00 83 117.9
20260508000358 60 76 0.0 200.0 0.00 0.00 0.00 83 117.9
20260507235858 60 74 0.0 200.0 0.00 0.00 0.00 83 117.9
20260507233809 60 75 0.0 200.0 0.00 0.00 0.00 81 117.8
20260507232753 61 74 0.0 200.0 0.00 0.00 0.00 81 117.8
20260507232252 61 74 0.0 200.0 0.00 0.00 0.00 81 117.8
20260507231751 61 75 0.0 200.0 0.00 0.00 0.00 81 117.8
20260507231250 61 79 0.0 200.0 0.00 0.00 0.00 82 117.9
20260507230749 60 82 0.0 200.0 0.00 0.00 0.00 83 118.0
20260507230248 60 84 0.0 200.0 0.00 0.00 0.00 84 118.1
20260507225747 60 87 0.0 200.0 0.00 0.00 0.00 83 118.1
20260507225246 60 91 0.0 200.0 0.00 0.00 0.00 83 118.2
20260507224746 61 95 0.0 200.0 0.00 0.00 0.00 82 118.3
20260507223729 61 100 0.0 200.0 0.00 0.00 0.00 81 118.4
20260507223228 61 99 0.0 200.0 0.00 0.00 0.00 81 118.4
20260507222728 61 96 0.0 200.0 0.00 0.00 0.00 81 118.3
20260507222227 62 92 0.0 200.0 0.00 0.00 0.00 81 118.2
20260507221211 62 86 0.0 200.0 0.00 0.00 0.00 81 118.0
20260507220710 61 85 0.0 200.0 0.00 0.00 0.00 81 117.9
20260507220209 61 86 0.0 200.0 0.00 0.00 0.00 82 117.9
20260507215708 61 88 0.0 200.0 0.00 0.00 0.00 82 117.9
20260507215208 61 92 0.0 200.0 0.00 0.00 0.00 82 118.1
20260507214708 61 96 0.0 200.0 0.00 0.00 0.00 82 118.1
20260507214207 61 99 0.0 200.0 0.00 0.00 0.00 82 118.2
20260507213706 61 100 0.0 200.0 0.00 0.00 0.00 82 118.3
20260507212651 61 99 0.0 200.0 0.00 0.00 0.00 82 118.3
20260507212150 61 96 0.0 200.0 0.00 0.00 0.00 82 118.3
20260507211649 61 94 0.0 200.0 0.00 0.00 0.00 82 118.3
20260507210633 61 88 0.0 200.0 0.00 0.00 0.00 81 118.1
20260507210132 61 87 0.0 200.0 0.00 0.00 0.00 81 118.1
20260507205631 61 86 0.0 200.0 0.00 0.00 0.07 81 118.0
20260507205130 61 86 0.0 200.0 0.00 0.00 0.07 81 118.1
20260507204629 61 85 0.0 200.0 0.00 0.00 0.07 81 118.1
20260507204128 61 85 0.0 200.0 0.00 0.00 0.07 81 118.0
20260507203112 61 83 0.0 200.0 0.00 0.00 0.07 81 118.0
20260507202612 61 82 0.0 200.0 0.00 0.00 0.07 81 117.9
20260507202112 61 81 0.0 200.0 0.00 0.00 0.07 81 117.9
20260507201612 61 81 0.0 200.0 0.00 0.00 0.07 81 117.9
20260507200556 61 87 0.0 200.0 0.00 0.00 0.07 80 118.0
20260507200055 61 91 0.0 200.0 0.00 0.00 0.07 79 118.0
20260507195554 61 93 0.0 200.0 0.00 0.00 0.07 79 118.2
20260507195053 61 95 0.0 200.0 0.00 0.00 0.07 78 118.3
20260507194553 61 98 0.0 200.0 0.00 0.00 0.07 78 118.3
20260507194052 61 101 0.0 200.0 0.00 0.00 0.07 78 118.4
20260507193551 61 103 0.0 200.0 0.00 0.00 0.07 78 118.4
20260507193050 62 104 0.0 200.0 0.00 0.00 0.07 78 118.5
20260507192550 62 105 0.0 200.0 0.00 0.00 0.07 78 118.5
20260507192049 62 107 0.0 200.0 0.00 0.00 0.07 78 118.5
20260507191548 62 109 0.0 200.0 0.00 0.00 0.07 79 118.6
20260507191048 62 110 0.0 200.0 0.00 0.00 0.07 79 118.5
20260507190547 62 110 0.0 200.0 0.00 0.00 0.07 79 118.5
20260507190046 62 111 0.0 200.0 0.00 0.00 0.07 79 118.6
20260507185545 62 113 0.0 200.0 0.00 0.00 0.07 80 118.7
20260507185044 62 116 0.0 200.0 0.00 0.00 0.07 80 118.6
20260507184543 62 119 0.0 200.0 0.00 0.00 0.07 79 118.7
20260507184042 62 122 0.0 200.0 0.00 0.00 0.07 79 118.8
20260507183541 62 124 0.0 200.0 0.00 0.00 0.07 79 118.9
20260507183040 62 127 0.0 200.0 0.00 0.00 0.07 79 118.9
20260507182539 63 130 0.0 200.0 0.00 0.00 0.07 78 119.0
20260507181523 63 139 0.0 200.0 0.00 0.00 0.07 76 119.2
20260507181022 63 143 0.0 200.0 0.00 0.00 0.07 76 119.4
20260507180521 63 146 0.0 200.0 0.00 0.00 0.07 75 119.4
20260507175505 63 154 0.0 200.0 0.00 0.00 0.07 75 119.6
20260507175005 64 159 0.0 200.0 0.00 0.00 0.07 75 119.7
20260507174505 64 164 0.0 200.0 0.00 0.00 0.07 75 119.8
20260507173448 65 171 0.0 200.0 0.00 0.00 0.07 73 120.0
20260507172431 65 173 0.0 200.0 0.00 0.00 0.07 73 120.0
20260507171930 65 180 0.0 200.0 0.00 0.00 0.07 73 120.1
20260507171429 65 189 0.0 200.0 0.00 0.00 0.07 72 120.2
20260507170928 65 200 0.0 200.0 0.00 0.00 0.07 73 120.4
20260507170427 65 212 0.0 200.0 0.00 0.00 0.07 74 120.7
20260507165926 66 220 0.0 200.0 0.00 0.00 0.07 74 120.9
20260507165425 66 225 0.0 200.0 0.00 0.00 0.07 74 121.1
20260507164408 67 229 0.0 200.0 0.00 0.00 0.07 71 121.4
20260507163908 67 229 0.0 200.0 0.00 0.00 0.07 74 121.4
20260507163408 67 228 0.0 200.0 0.00 0.00 0.07 72 121.3
20260507162907 67 229 0.0 200.0 0.00 0.00 0.07 72 121.4
20260507161850 67 235 0.0 200.0 0.00 0.00 0.07 72 121.5
20260507161350 67 235 0.0 200.0 0.00 0.00 0.07 72 121.4
20260507160849 67 236 0.0 200.0 0.00 0.00 0.07 72 121.4
20260507155833 67 237 0.0 200.0 0.00 0.00 0.07 71 121.4
20260507155333 67 235 0.0 200.0 0.00 0.00 0.07 69 121.3
20260507154316 67 227 0.0 200.0 0.00 0.00 0.07 69 121.2
20260507153300 67 219 0.0 200.0 0.00 0.00 0.07 70 121.1
20260507152244 67 210 0.0 200.0 0.00 0.00 0.07 70 120.9
20260507151743 67 205 0.0 200.0 0.00 0.00 0.07 70 120.8
20260507145654 68 222 0.0 200.0 0.00 0.00 0.07 68 121.1
20260507145153 68 233 0.0 200.0 0.00 0.00 0.07 67 121.3
20260507144652 68 243 0.0 200.0 0.00 0.00 0.07 65 121.6
20260507144151 69 253 0.0 200.0 0.00 0.00 0.07 66 121.9
20260507143651 69 266 0.0 200.0 0.00 0.00 0.07 65 122.1
20260507143150 69 280 0.0 200.0 0.00 0.00 0.07 65 122.4
20260507142649 70 296 0.0 200.0 0.00 0.00 0.07 63 122.8
20260507142148 70 306 0.0 200.0 0.00 0.00 0.07 65 123.0
20260507140616 71 308 0.0 200.0 0.00 0.00 0.07 65 123.2
20260507140115 70 304 0.0 200.0 0.00 0.00 0.07 66 123.1
20260507134542 70 277 0.0 200.0 0.00 0.00 0.07 69 122.6
20260507133526 69 273 0.0 200.0 0.00 0.00 0.07 70 122.4
20260507133025 70 269 0.0 200.0 0.00 0.00 0.07 71 122.4
20260507132525 70 259 0.0 200.0 0.00 0.00 0.07 72 122.2
20260507132024 70 249 0.0 200.0 0.00 0.00 0.07 72 121.9
20260507131523 69 247 0.0 200.0 0.00 0.00 0.07 72 121.8
20260507131022 69 241 0.0 200.0 0.00 0.00 0.07 72 121.7
20260507130522 69 241 0.0 200.0 0.00 0.00 0.07 71 121.7
20260507130021 69 244 0.0 200.0 0.00 0.00 0.07 71 121.7
20260507123933 68 257 0.0 200.0 0.00 0.00 0.07 72 122.0
20260507123432 68 245 0.0 200.0 0.00 0.00 0.07 69 121.9
20260507122931 68 223 0.0 200.0 0.00 0.00 0.07 73 121.5
20260507122430 67 194 0.0 200.0 0.00 0.00 0.07 75 120.9
20260507121929 66 171 0.0 200.0 0.00 0.00 0.07 78 120.2
20260507121428 66 152 0.0 200.0 0.03 0.00 0.07 82 119.7
20260507120927 65 138 0.0 200.0 0.03 0.00 0.07 83 119.3
20260507120426 65 130 0.0 200.0 0.03 0.00 0.07 83 119.0
20260507115926 65 126 0.0 200.0 0.03 0.00 0.07 84 118.9
20260507114353 65 130 0.0 200.0 0.07 0.00 0.07 84 118.9
20260507113852 65 130 0.0 200.0 0.07 0.00 0.07 85 118.9
20260507113351 65 127 0.0 200.0 0.07 0.00 0.07 84 118.9
20260507112850 65 121 0.0 200.0 0.07 0.00 0.07 83 118.8
20260507111835 65 116 0.0 200.0 0.07 0.00 0.07 82 118.6
20260507111332 65 113 0.0 200.0 0.07 0.00 0.07 83 118.5
20260507110831 65 115 0.0 200.0 0.03 0.00 0.03 82 118.5
20260507110331 65 119 0.0 200.0 0.03 0.00 0.03 80 118.6
20260507105830 65 124 0.0 200.0 0.03 0.00 0.03 79 118.7
20260507105329 65 129 0.0 200.0 0.03 0.00 0.03 80 118.8
20260507104828 66 136 0.0 200.0 0.03 0.00 0.03 79 119.0
20260507104327 66 144 0.0 200.0 0.00 0.00 0.00 78 119.2
20260507103311 66 165 0.0 200.0 0.00 0.00 0.00 75 119.7
20260507102810 67 168 0.0 200.0 0.00 0.00 0.00 70 119.9
20260507102309 67 174 0.0 200.0 0.00 0.00 0.00 68 120.0
20260507101808 67 176 0.0 200.0 0.00 0.00 0.00 65 120.1
20260507101307 67 174 0.0 200.0 0.00 0.00 0.00 65 120.0
20260507100806 67 171 0.0 200.0 0.00 0.00 0.00 66 120.0
20260507100306 67 169 0.0 200.0 0.00 0.00 0.00 66 119.9
20260507095806 67 171 0.0 200.0 0.00 0.00 0.00 65 120.0
20260507094749 67 185 0.0 200.0 0.00 0.00 0.00 62 120.2
20260507094248 67 193 0.0 200.0 0.00 0.00 0.00 62 120.4
20260507093231 68 204 0.0 200.0 0.00 0.00 0.00 63 120.7
20260507092730 68 206 0.0 200.0 0.00 0.00 0.00 62 120.8
20260507092229 68 202 0.0 200.0 0.00 0.00 0.00 59 120.7
20260507090656 67 200 0.0 200.0 0.00 0.00 0.00 61 120.7
20260507090155 67 205 0.0 200.0 0.00 0.00 0.00 60 120.7
20260507085654 67 209 0.0 200.0 0.00 0.00 0.00 62 120.8
20260507085153 67 208 0.0 200.0 0.00 0.00 0.00 63 120.9
20260507084652 67 211 0.0 200.0 0.00 0.00 0.00 64 120.9
20260507084151 67 218 0.0 200.0 0.00 0.00 0.00 63 121.1
20260507083650 67 226 0.0 200.0 0.00 0.00 0.00 61 121.2
20260507083149 67 226 0.0 200.0 0.00 0.00 0.00 64 121.3
20260507082648 67 224 0.0 200.0 0.00 0.00 0.00 67 121.2
20260507081115 67 225 0.0 200.0 0.00 0.00 0.00 70 121.1
20260507080615 68 224 0.0 200.0 0.00 0.00 0.00 69 121.2
20260507075558 67 214 0.0 200.0 0.00 0.00 0.00 67 121.0
20260507075057 67 208 0.0 200.0 0.00 0.00 0.00 66 120.9
20260507074556 67 201 0.0 200.0 0.00 0.00 0.00 67 120.7
20260507074055 67 196 0.0 200.0 0.00 0.00 0.00 67 120.7
20260507073555 66 202 0.0 200.0 0.00 0.00 0.00 68 120.8
20260507073054 66 213 0.0 200.0 0.00 0.00 0.00 68 121.0
20260507072554 67 225 0.0 200.0 0.00 0.00 0.00 68 121.3
20260507072053 67 227 0.0 200.0 0.00 0.00 0.00 67 121.4
20260507071553 67 215 0.0 200.0 0.00 0.00 0.00 67 121.3
20260507071051 67 197 0.0 200.0 0.00 0.00 0.00 66 121.0
20260507070550 67 179 0.0 200.0 0.00 0.00 0.00 68 120.6
20260507070050 66 169 0.0 200.0 0.00 0.00 0.00 71 120.2
20260507065548 66 168 0.0 200.0 0.00 0.00 0.00 71 120.0
20260507065048 66 172 0.0 200.0 0.00 0.00 0.00 71 120.1
20260507064546 66 181 0.0 200.0 0.00 0.00 0.00 71 120.3
20260507064045 66 187 0.0 200.0 0.00 0.00 0.00 71 120.5
20260507062514 66 201 0.0 200.0 0.00 0.00 0.00 71 121.0
20260507062013 66 207 0.0 200.0 0.00 0.00 0.00 70 121.2
20260507061511 67 204 0.0 200.0 0.00 0.00 0.00 70 121.3
20260507061010 66 198 0.0 200.0 0.00 0.00 0.00 72 121.2
20260507060510 66 191 0.0 200.0 0.00 0.00 0.00 69 121.0
20260507055454 66 165 0.0 200.0 0.00 0.00 0.00 70 120.4
20260507054952 65 156 0.0 200.0 0.00 0.00 0.00 72 120.1
20260507054451 65 144 0.0 200.0 0.00 0.00 0.00 73 119.9
20260507053950 64 134 0.0 200.0 0.00 0.00 0.00 74 119.6
20260507053449 64 129 0.0 200.0 0.00 0.00 0.00 74 119.4
20260507052948 63 122 0.0 200.0 0.00 0.00 0.00 75 119.2
20260507052447 63 116 0.0 200.0 0.00 0.00 0.00 76 119.0
20260507051946 62 111 0.0 200.0 0.00 0.00 0.00 77 118.7
20260507051446 62 108 0.0 200.0 0.00 0.00 0.00 77 118.5
20260507050945 61 100 0.0 200.0 0.00 0.00 0.00 77 118.4
20260507050444 61 92 0.0 200.0 0.00 0.00 0.00 79 118.2